Location: Campbell Hill
(37.9301°N, 89.5490°W)
Time: 11:00:41
(UTC+00:00)

SL-16 R/B - Pass Details

Date: 07 November 2025
Orbit: 985 x 1006 km, 99.8° (Epoch: 07 December)

Event Time Altitude Azimuth Distance (km) Brightness Sun altitude
Rises 23:20:15 0° 6° (N) 3,742 5.3 -6.0°
Reaches altitude 10° 23:22:52 10° 359° (N) 2,788 4.7 -6.5°
Maximum altitude 23:28:37 40° 293° (WNW) 1,448 4.0 -7.6°
Drops below altitude 10° 23:34:21 10° 226° (SW) 2,769 5.9 -8.6°
Sets 23:36:57 0° 219° (SW) 3,713 6.5 -9.1°
